Regional Weather Roundup
Issued by NWS Kansas City/Pleasant Hill, MO

Home | Current Version | Previous Version | Graphics & Text | Print | Product List | Glossary Off
Versions: 1 2 3 4 5 6 7 8 9 10 11 12 13 14 15 16 17 18 19 20 21 22 23 24 25 26 27 28 29 30 31 32 33 34 35 36 37 38 39 40 41 42 43 44 45 46 47 48 49 50

000
ASUS43 KEAX 311810
RWREAX

WEATHER ROUNDUP FOR EASTERN KANSAS AND NORTHWEST MISSOURI
NATIONAL WEATHER SERVICE KANSAS CITY/PLEASANT HILL MO
100 PM CDT THU JUL 31 2014

KSZ040-057-103>105-MOZ028-029-037-043-311900-
...KANSAS CITY METROPOLITAN AREA...

CITY           SKY/WX    TMP DP  RH WIND       PRES   REMARKS
K.C. INTL      CLOUDY    79  56  45 CALM      30.12F
6HR MIN TEMP:  60; 6HR MAX TEMP:  80;

K.C. DOWNTOWN  PTSUNNY   80  55  42 E5        30.10F
6HR MIN TEMP:  62; 6HR MAX TEMP:  81;

LEES SUMMIT    MOSUNNY   79  55  43 E6        30.12F
6HR MIN TEMP:  62; 6HR MAX TEMP:  80;

OLATHE - IXD   MOSUNNY   81  54  39 VRB3      30.12F
6HR MIN TEMP:  57; 6HR MAX TEMP:  82;

OLATHE - OJC   MOSUNNY   80  55  42 NE5       30.11F
6HR MIN TEMP:  62; 6HR MAX TEMP:  82;

LAWRENCE       MOSUNNY   81  56  42 CALM      30.11F

$$

MOZ001>008-011>017-020>025-030>033-038>040-044>046-053-054-311900-
...NORTHERN AND CENTRAL MISSOURI...

CITY           SKY/WX    TMP DP  RH WIND       PRES   REMARKS
ST. JOSEPH     MOSUNNY   81  56  42 VRB5      30.11F
6HR MIN TEMP:  53; 6HR MAX TEMP:  81;

MOSBY          PTCLDY    79  54  41 CALM      30.11S
WHITEMAN AFB   PTSUNNY   80  45  28 VRB3      30.10S
6HR MIN TEMP:  57; 6HR MAX TEMP:  80;

CLINTON        MOSUNNY   82  61  47 CALM      30.11S
SEDALIA        PTSUNNY   80  57  45 CALM      30.12S
6HR MIN TEMP:  60; 6HR MAX TEMP:  82;

WARSAW         NOT AVBL
MARSHALL       PTSUNNY   84  59  42 W3        30.12S HAZE
CHILLICOTHE      N/A     81  55  40 VRB5      30.11F
6HR MIN TEMP:  57; 6HR MAX TEMP:  82;

MOBERLY        SUNNY     79  54  41 SW3       30.11F
KIRKSVILLE     MOSUNNY   80  57  45 NW7       30.12S
6HR MIN TEMP:  55; 6HR MAX TEMP:  81;


$$

MOZ041-047>049-056>058-063>065-088>090-097-311900-
...EASTERN AND SOUTHERN MISSOURI...

CITY           SKY/WX    TMP DP  RH WIND       PRES   REMARKS
ST. LOUIS INTL PTSUNNY   84  59  42 VRB3      30.09F
SPIRIT OF STL  PTSUNNY   82  57  42 N3        30.07F
COLUMBIA       PTSUNNY   82  54  37 VRB5      30.10F
JEFFERSON CITY MOSUNNY   81  55  40 CALM      30.08F
HANNIBAL       MOSUNNY   84  55  37 W5        30.10F
ROLLA          MOSUNNY   81  52  36 S7        30.09F
LEBANON        SUNNY     82  54  36 S8        30.11F
OSAGE BEACH    CLOUDY    81  59  47 N3        30.10S
SPRINGFIELD    CLOUDY    76  60  57 SE6       30.11S
BRANSON        CLOUDY    72  64  78 E7        30.13S
NEVADA         MOSUNNY   81  59  47 SE5       30.12S
JOPLIN         CLOUDY    77  63  61 E5        30.10F
WEST PLAINS    CLOUDY    74  61  63 SE3       30.12F
MALDEN         PTSUNNY   73  66  78 SW6       30.12S

$$

IAZ060-094-KSZ022-034>040-054-083-096-NEZ052-066-093-311900-
...KANSAS...SOUTHEAST NEBRASKA AND IOWA...

CITY           SKY/WX    TMP DP  RH WIND       PRES   REMARKS
TOPEKA         MOSUNNY   82  52  35 CALM      30.11F
6HR MIN TEMP:  55; 6HR MAX TEMP:  84;

MANHATTAN      SUNNY     80  53  39 E3        30.11F
EMPORIA        SUNNY     78  53  41 N5        30.12F
CHANUTE        CLOUDY    80  59  48 NE5       30.11F
WICHITA        PTSUNNY   78  56  46 CALM      30.13F
OMAHA          PTSUNNY   80  53  39 S9        30.08F
LINCOLN        SUNNY     84  54  35 SW10      30.09F
FALLS CITY     MOSUNNY   83  55  38 VRB5      30.10F
LAMONI         PTSUNNY   79  55  43 W7        30.11F
DES MOINES     MOSUNNY   81  56  42 W8        30.08F

$$



USA.gov is the U.S. government's official web portal to all federal, state and local government web resources and services.